MST,Max TemperatureF,Mean TemperatureF,Min TemperatureF,Max Dew PointF,MeanDew PointF,Min DewpointF,Max Humidity, Mean Humidity, Min Humidity, Max Sea Level PressureIn, Mean Sea Level PressureIn, Min Sea Level PressureIn, Max VisibilityMiles, Mean VisibilityMiles, Min VisibilityMiles, Max Wind SpeedMPH, Mean Wind SpeedMPH, Max Gust SpeedMPH,PrecipitationIn, CloudCover, Events, WindDirDegrees
2014-2-1,30,21,11,27,19,8,100,79,58,30.20,29.97,29.78,10,10,7,13,5,13,T,4,,9
2014-2-2,28,15,1,16,10,2,92,76,60,30.31,30.19,30.07,10,10,10,16,7,18,0.00,1,,103
2014-2-3,31,26,20,25,21,16,100,89,77,30.04,29.93,29.80,10,5,1,10,1,12,0.02,8,Snow,65
2014-2-4,34,23,12,26,23,7,100,85,69,30.18,29.88,29.78,10,4,0,16,3,20,0.12,8,Fog-Snow,59
2014-2-5,28,17,5,15,9,3,84,71,57,30.32,30.22,30.13,10,10,10,9,4,12,0.00,5,,91
2014-2-6,32,19,5,22,15,3,88,73,58,30.16,30.06,29.94,10,10,10,8,3,9,0.00,6,,71
2014-2-7,39,32,25,29,26,21,92,78,64,30.02,29.95,29.90,10,8,2,12,4,12,T,6,Snow,82
2014-2-8,44,34,24,31,28,23,92,75,57,30.11,30.04,29.95,10,10,8,12,3,12,T,5,,13
2014-2-9,41,34,26,35,32,26,100,88,76,30.09,30.03,29.98,10,9,4,12,4,13,0.03,6,Rain,86
2014-2-10,41,36,30,36,33,28,100,82,64,30.17,30.04,29.93,10,5,0,12,4,13,0.38,7,Fog-Rain-Snow,25
2014-2-11,43,35,26,32,26,21,100,77,53,30.26,30.18,30.09,10,10,2,15,5,17,0.00,3,,106
2014-2-12,43,35,26,32,27,22,92,73,53,30.29,30.19,30.10,10,10,10,17,7,21,0.00,3,,84
2014-2-13,47,38,29,36,31,27,92,73,53,30.14,30.07,30.00,10,10,10,10,3,10,T,5,,11
2014-2-14,51,41,30,38,33,29,92,77,61,30.14,30.07,30.03,10,10,10,13,5,14,0.00,5,,82
2014-2-15,49,40,31,40,34,30,92,77,61,30.11,30.05,29.99,10,10,10,10,3,12,0.00,0,,86
2014-2-16,63,49,34,36,30,19,89,58,27,30.16,29.92,29.75,10,10,10,26,10,33,0.00,1,,331
2014-2-17,53,42,30,34,24,18,79,54,28,30.27,30.11,29.95,10,10,10,23,9,27,0.00,0,,91
2014-2-18,56,42,28,36,28,23,85,58,30,30.09,30.01,29.93,10,10,10,10,4,12,0.00,0,,76
2014-2-19,53,42,30,37,29,14,85,62,38,29.95,29.77,29.58,10,8,1,33,8,41,0.06,5,Rain,277
2014-2-20,40,32,23,17,12,5,63,43,23,30.25,30.17,29.98,10,10,10,22,9,25,0.00,0,,292
2014-2-21,51,38,25,25,17,13,69,46,23,30.15,30.04,29.94,10,10,10,23,7,28,0.00,0,,80
2014-2-22,54,40,26,22,19,13,78,49,20,29.98,29.92,29.83,10,10,10,24,8,30,0.00,0,,98
2014-2-23,56,42,28,25,20,15,69,45,20,30.11,30.02,29.95,10,10,10,13,6,16,0.00,0,,105
2014-2-24,58,43,27,30,22,18,78,50,21,30.12,30.04,29.98,10,10,10,12,4,14,0.00,0,,85
2014-2-25,60,45,29,29,23,17,69,45,20,30.07,29.96,29.86,10,10,10,13,5,15,0.00,1,,78
2014-2-26,59,44,29,30,27,25,85,57,28,30.05,29.94,29.85,10,10,10,14,5,17,0.00,1,,118
2014-2-27,52,44,35,41,33,27,92,68,44,29.83,29.71,29.60,10,10,4,29,9,36,0.10,7,Rain-Thunderstorm,101
2014-2-28,52,42,31,36,32,28,92,67,41,29.90,29.79,29.61,10,10,10,21,9,24,T,5,Rain,108